Location: Dwarsgracht
(52.7228°N, 6.0361°E)
Time: 18:38:55
(UTC+00:00)

Daily predictions for brighter satellites

Satellite Brightness Start Highest point End
(mag) Time Altitude Azimuth Time Altitude Azimuth Time Altitude Azimuth
USA 215 3.4 16:05:15 10° ESE 16:11:49 86° SSW 16:18:24 10° WNW
Cosmos 2263 Rocket 4.1 16:12:18 10° WNW 16:16:08 18° NNW 16:19:59 10° NNE
Cosmos 2344 4.0 16:09:37 10° NW 16:16:42 46° NNE 16:25:21 10° E
Cosmos 1844 Rocket 3.7 16:12:21 10° WSW 16:17:37 42° NW 16:22:56 10° NNE
Cosmos 1025 Rocket 3.9 16:14:04 10° NNW 16:18:18 54° W 16:22:29 10° S
Cosmos 1802 Rocket 4.1 16:12:38 10° S 16:19:03 80° E 16:25:30 10° NNE
ARIANE 6 FM1 Upper Stage 3.8 16:16:12 10° W 16:19:46 31° NNW 16:23:20 10° NE
Iridium 4 Rocket 3.3 16:15:41 10° S 16:20:40 90° NE 16:25:13 10° N
SAR-Lupe-4 4.1 16:17:58 10° SE 16:21:17 37° ENE 16:24:38 10° N
ISS -2.0 16:25:23 10° SSW 16:28:04 22° SSE 16:30:44 10° E
COSMOS 2406 4.0 16:23:51 10° NNW 16:28:54 32° NE 16:33:57 10° ESE
Cosmos 1833 Rocket 3.5 16:23:25 10° NW 16:28:59 59° WSW 16:34:30 10° SSE
USA 281 4.5 16:25:22 10° ENE 16:30:01 21° NNE 16:34:41 10° NNW
CZ-2D R/B 3.3 16:27:37 10° SE 16:30:32 35° ENE 16:33:27 10° N
Cosmos 407 Rocket 4.2 16:26:57 10° SSE 16:31:33 33° ESE 16:36:07 10° NE
Cosmos 1484 Rocket 3.2 16:29:14 10° S 16:32:42 60° WSW 16:36:14 10° NNW
Cosmos 2016 Rocket 4.1 16:26:38 10° S 16:32:57 85° E 16:39:23 10° NNE
Cosmos 1812 3.8 16:31:57 10° ESE 16:33:35 14° E 16:34:34 12° ENE
Tsikada Rocket 4.1 16:27:50 10° N 16:34:18 85° E 16:40:40 10° S
CBERS-1 4.3 16:30:02 10° S 16:35:08 73° WSW 16:40:17 10° NNW
IRS-P3 4.4 16:30:46 10° SE 16:35:49 46° ENE 16:40:54 10° N
Cosmos 1606 4.2 16:34:15 10° SW 16:36:26 22° WNW 16:38:38 10° NNW
Cosmos 2084 Rocket 3.4 16:35:57 10° SW 16:40:08 87° NW 16:44:07 11° NE
SMAP 3.0 16:38:15 10° SSE 16:42:54 77° ENE 16:47:34 10° NNW
Cosmos 540 Rocket 3.4 16:38:26 10° NNW 16:43:35 72° ENE 16:48:41 10° SSE
Cosmos 44 Rocket 4.3 16:40:11 10° S 16:44:14 28° ESE 16:47:38 14° ENE
SJ 16-02 2.9 16:44:13 10° SE 16:46:47 16° E 16:47:54 14° ENE
SPOT 1/Viking Rocket 4.1 16:43:03 10° SE 16:47:44 36° ENE 16:52:28 10° N
Radarsat 4.5 16:42:38 10° SSE 16:47:48 78° ENE 16:53:00 10° NNW
Cosmos 2297 Rocket 4.3 16:45:38 10° NNW 16:47:48 12° N 16:49:58 10° NNE
Cosmos 1869 3.5 16:45:13 10° SSE 16:48:29 37° E 16:51:46 10° NNE
YAOGAN 1 3.6 16:46:10 10° ESE 16:49:35 24° ENE 16:53:01 10° N
IGS 5A 3.9 16:46:07 10° S 16:50:03 63° W 16:54:01 10° NNW
SL-16 R/B 2.7 16:45:32 10° NNE 16:51:50 81° WNW 16:58:05 10° SSW
Cosmos 1763 Rocket 3.5 16:46:46 10° NNW 16:52:02 87° WSW 16:57:12 10° SSE
SAR-Lupe-5 4.5 16:51:23 10° N 16:54:01 71° WNW 16:56:38 10° SSW
Landsat 7 3.7 16:50:25 10° SSE 16:55:03 73° ENE 16:59:43 10° N
Nadezhda 4 Rocket 4.3 16:51:20 10° N 16:57:18 42° ENE 17:03:10 10° SE
Timation 1 Rocket 4.4 16:51:45 10° NW 16:57:44 84° WSW 17:03:42 10° SSE
RESURS DK-1 2.6 16:53:49 10° NW 16:57:50 71° WSW 17:01:48 10° SSE
Spot 4 Rocket 4.5 16:54:02 10° SE 16:58:41 38° ENE 17:03:23 10° N
Cosmos 1140 Rocket 3.5 16:55:15 10° SSW 17:00:26 86° WNW 17:05:38 10° NNE
Aureole 3 Rocket 3.0 16:58:45 10° SSE 17:01:30 32° E 17:03:44 15° NE
CZ-4C R/B 3.1 16:57:06 10° W 17:01:42 39° NNW 17:06:52 13° NE
Resurs 1-3 4.3 17:00:06 10° SE 17:03:50 30° ENE 17:07:36 10° N
UNK 3.7 17:00:15 10° NNE 17:04:54 83° ESE 17:09:31 10° SSW
Meteor 1-28 Rocket 3.8 17:01:47 10° N 17:05:04 51° WNW 17:08:21 10° SSW
SJ-6F 4.2 17:03:03 10° SSE 17:06:57 69° ENE 17:10:52 10° N
Meteor 2-12 Rocket 4.4 17:02:10 10° N 17:08:19 89° E 17:14:24 10° S
Cosmos 1400 Rocket 3.7 17:07:54 10° SE 17:10:59 24° E 17:11:08 24° E
Cosmos 1536 Rocket 3.8 17:06:46 10° N 17:11:03 45° ENE 17:15:17 10° SSE
Cosmos 371 Rocket 4.4 17:07:39 10° SSE 17:11:18 22° E 17:12:04 21° E
SJ-12 3.8 17:07:37 10° SSE 17:11:25 79° WSW 17:15:14 10° NNW
SAR-Lupe-3 3.7 17:13:46 30° NE 17:14:49 57° ESE 17:17:25 10° S
Cosmos 489 Rocket 4.4 17:11:33 10° NNW 17:17:48 64° ENE 17:23:58 10° SE
Okean 2 Rocket 3.8 17:14:32 10° SSE 17:18:22 30° E 17:20:03 23° NE
ATLAS CENTAUR R/B 3.1 17:23:27 10° WNW 17:25:53 18° NNW 17:27:36 13° NNE
NOAA 6 4.3 17:22:02 10° SE 17:26:51 42° ENE 17:31:41 10° N
COSMO-SKYMED 1 3.2 17:26:49 30° E 17:26:52 30° E 17:30:30 10° SSE
SL-12 R/B(2) 4.4 17:19:21 10° SSW 17:27:24 72° SE 17:35:47 16° NE
Geosat 4.3 17:25:22 21° ESE 17:28:21 45° NE 17:33:06 10° NNW
Resurs 01 Rocket 2.8 17:30:11 24° NE 17:30:11 24° NE 17:32:58 10° N
Cosmos 1943 Rocket 2.1 17:25:19 10° SSW 17:30:55 76° ESE 17:35:17 17° NE
Timation 2 Rocket 4.1 17:25:27 10° SSW 17:32:20 80° ESE 17:38:22 14° NE
Cosmos 841 Rocket 3.5 17:27:34 10° NNW 17:32:49 63° ENE 17:38:01 10° SE
Cosmos 2058 2.8 17:29:05 10° NNW 17:33:05 85° W 17:37:03 10° S
Cosmos 2251 Rocket 3.5 17:29:46 10° S 17:34:57 60° ESE 17:38:36 20° NE
Cosmos 2227 Rocket 4.3 17:34:21 10° NNW 17:36:27 12° N 17:38:34 10° NNE
SJ-7 4.1 17:33:20 10° SSE 17:36:58 61° ENE 17:40:38 10° N
BREEZE-M DEB (TANK) 3.0 17:35:14 10° SW 17:37:53 45° SSE 17:39:49 29° ESE
Cosmos 2082 Rocket 2.4 17:32:23 10° NW 17:37:59 71° WSW 17:43:34 10° SSE
ATLAS 2AS CENTAUR R/B 2.9 17:32:17 10° NW 17:38:56 52° NNE 17:42:14 29° E
Cosmos 1346 Rocket 3.5 17:36:10 10° N 17:38:39 32° NNE 17:38:39 32° NNE
IRAS Rocket 4.1 17:38:33 10° SSE 17:44:06 81° ENE 17:49:39 10° NNW
Cosmos 1602 4.0 17:41:21 10° NNW 17:44:21 50° W 17:47:18 10° S
Cosmos 2278 Rocket 2.1 17:38:45 10° SSW 17:44:25 88° ESE 17:48:33 19° NNE
MOS 1 Rocket 3.6 17:42:01 10° S 17:46:19 63° WSW 17:50:53 10° NNW
Cosmos 1464 Rocket 3.9 17:44:44 10° S 17:51:00 75° E 17:57:13 10° NNE
ARIANE 5 R/B 4.1 17:46:52 10° SSW 17:51:27 36° W 17:56:05 10° NNW
CZ-2D R/B 3.6 17:47:54 10° S 17:52:03 76° WSW 17:56:18 10° NNW
Cosmos 1862 3.4 17:51:54 10° NNW 17:55:29 64° W 17:59:05 10° S
PSLV R/B 3.3 17:53:48 10° SSE 17:57:50 90° W 18:01:53 10° NNW
ARIANE 6 FM1 Upper Stage 4.2 17:56:42 10° NW 17:59:49 21° N 17:59:56 21° N
Cosmos 2151 Rocket 3.5 17:57:02 10° S 18:01:31 88° W 18:05:04 16° N
Cosmos 2263 Rocket 4.4 18:00:27 10° NNW 18:02:29 12° N 18:04:12 10° NNE
Cosmos 1190 Rocket 3.9 17:57:27 10° SSW 18:02:45 83° ESE 18:05:27 30° NNE
ISS -3.1 18:01:07 10° WSW 18:03:52 50° SSW 18:03:52 50° SSW
Cosmos 2034 Rocket 3.9 17:58:49 10° S 18:04:57 66° E 18:11:11 10° NNE
Cosmos 1812 3.7 18:03:06 10° SW 18:05:47 33° WNW 18:06:22 30° NW
Cosmos 676 Rocket 4.0 18:00:41 10° S 18:05:52 58° ESE 18:06:43 51° ENE
SKYMED 2 3.5 18:03:52 24° NNE 18:06:30 84° WNW 18:10:52 10° SSW
Okean 1 Rocket 2.9 18:03:48 10° S 18:08:11 73° E 18:08:25 71° ENE
Cosmos 1656 Rocket 4.1 18:03:20 10° S 18:08:00 42° SE 18:08:00 42° SE
Cosmos 220 Rocket 3.8 18:07:23 10° NNW 18:11:16 76° N 18:11:16 76° N
Cosmos 407 Rocket 4.4 18:08:21 10° SW 18:13:19 46° NW 18:17:08 16° NNE
USA 281 3.3 18:11:29 42° ESE 18:13:23 56° NE 18:19:48 10° NNW
COSMOS 2406 3.4 18:07:59 10° NW 18:13:40 69° WSW 18:19:01 11° SSE
Sich 1 Rocket 3.5 18:09:24 10° S 18:13:57 84° E 18:14:56 55° NNE
Cosmos 1954 Rocket 3.9 18:09:54 10° SSW 18:15:10 85° ESE 18:16:54 44° NNE
Cosmos 1092 Rocket 3.8 18:09:12 10° N 18:15:29 72° ENE 18:21:40 10° SSE
SL-19 R/B 4.5 18:14:15 10° S 18:19:24 63° WSW 18:24:38 10° NNW
Cosmos 2026 Rocket 3.8 18:14:22 10° N 18:20:30 85° E 18:26:39 10° S
SJ 16-02 1.4 18:20:03 10° SSW 18:24:22 74° WNW 18:24:29 73° NW
YAOGAN 1 3.4 18:21:04 10° S 18:25:12 49° W 18:29:21 10° NNW
Cosmos 44 Rocket 3.6 18:20:32 10° SW 18:25:20 64° NW 18:26:14 53° N
Cosmos 2344 3.9 18:24:03 10° NW 18:31:50 81° SW 18:38:34 24° SE
Cosmos 2297 Rocket 4.0 18:30:22 10° NNW 18:33:09 18° NNE 18:33:09 18° NNE
Meteor 2-3 Rocket 4.0 18:30:45 10° NNW 18:36:25 67° W 18:42:00 10° S
Cosmos 1400 Rocket 4.3 18:42:48 10° SW 18:45:48 33° W 18:45:48 33° W
Cosmos 304 Rocket 4.2 18:44:34 10° SW 18:48:47 58° W 18:48:47 58° W
Cosmos 371 Rocket 3.8 18:46:20 10° SW 18:50:35 58° W 18:50:35 58° W
CZ-4C R/B 3.6 18:46:29 10° WNW 18:51:28 31° N 18:51:50 31° NNE
COSMO-SKYMED 1 4.2 19:03:11 31° W 19:03:11 31° W 19:05:59 10° SW
Resurs 01 Rocket 3.4 19:07:36 27° NW 19:07:36 27° NW 19:09:47 10° NNW
BREEZE-M DEB (TANK) 4.3 19:09:02 10° WSW 19:11:47 53° SW 19:11:47 53° SW
Cosmos 1943 Rocket 3.8 19:10:23 10° W 19:15:13 29° NW 19:16:48 25° NNW
Cosmos 2227 Rocket 4.4 19:18:57 10° NNW 19:20:29 15° N 19:20:29 15° N
Cosmos 2278 Rocket 3.9 19:24:30 10° W 19:29:14 26° NW 19:30:23 25° NNW
ATLAS 2AS CENTAUR R/B 3.0 19:23:23 10° NW 19:29:41 58° WSW 19:29:41 58° WSW
USA 281 4.2 19:58:21 41° W 19:58:21 41° W 20:04:17 10° NW
